This demonstration page uses our WeatherBlox Daily Observations layout. Learn more.

38.89511, -77.03637

Hourly Observations for January 15, 2015

Temp ( °F °C ) Dew Point ( °F °C ) Humidity (%) Winds ( mph kmh ) Pressure ( in mb ) Visibility ( mi km ) Precip ( " mm )
12:52 am 00:52 Cloudy 32 0 22 -5.6 66 66 NW 9 15 30.23 1024 10 16.0934 0 0
1:52 am 01:52 Cloudy 32 0 21 -6.1 64 64 NNW 10 17 30.23 1024 10 16.0934 0 0
2:52 am 02:52 Cloudy 32 0 22 -5.6 66 66 NNW 7 11 30.22 1024 10 16.0934 0 0
3:52 am 03:52 Cloudy 32 0 22 -5.6 66 66 NNW 7 11 30.21 1023 10 16.0934 0 0
4:52 am 04:52 Cloudy 32 0 22 -5.6 66 66 NNW 6 9 30.2 1023 10 16.0934 0 0
5:52 am 05:52 Cloudy 32 0 22 -5.6 66 66 NNW 6 9 30.21 1023 10 16.0934 0 0
6:52 am 06:52 Cloudy 33 0.6 22 -5.6 64 64 N 5 7 30.21 1023 10 16.0934 0 0
7:52 am 07:52 Cloudy 33 0.6 22 -5.6 64 64 NNW 5 7 30.21 1023 9 14.48406 0 0
8:52 am 08:52 Mostly Cloudy 34 1.1 21 -6.1 59 59 NW 6 9 30.21 1023 10 16.0934 0 0
9:52 am 09:52 Mostly Cloudy 35 1.7 21 -6.1 57 57 NNW 5 7 30.22 1023 10 16.0934 0 0
10:37 am 10:37 Cloudy 36 2 19 -7 52 52 NW 8 13 30.21 1023 10 16.0934 0 0
10:52 am 10:52 Cloudy 36 2.2 21 -6.1 55 55 NW 7 11 30.2 1023 10 16.0934 0 0
11:52 am 11:52 Cloudy 37 2.8 20 -6.7 50 50 WNW 6 9 30.16 1021 10 16.0934 0 0
12:43 pm 12:43 Partly Cloudy 39 4 21 -6 48 48 SW 6 9 30.12 1020 10 16.0934 0 0
12:52 pm 12:52 Partly Cloudy 39 3.9 22 -5.6 50 50 VRB 7 11 30.11 1020 10 16.0934 0 0
1:52 pm 13:52 Partly Cloudy 41 5 22 -5.6 47 47 VRB 6 9 30.1 1019 10 16.0934 0 0
2:52 pm 14:52 Mostly Cloudy 40 4.4 23 -5 51 51 SW 8 13 30.09 1019 10 16.0934 0 0
3:52 pm 15:52 Cloudy 40 4.4 24 -4.4 53 53 WSW 7 11 30.08 1019 10 16.0934 0 0
4:52 pm 16:52 Mostly Cloudy 40 4.4 25 -3.9 55 55 WSW 8 13 30.08 1019 10 16.0934 0 0
5:52 pm 17:52 Partly Cloudy 37 2.8 25 -3.9 62 62 SW 3 6 30.08 1019 10 16.0934 0 0
6:52 pm 18:52 Clear 36 2.2 25 -3.9 64 64 SW 5 7 30.06 1018 10 16.0934 0 0
7:52 pm 19:52 Clear 34 1.1 25 -3.9 70 70 SSW 6 9 30.05 1018 10 16.0934 0 0
8:52 pm 20:52 Clear 34 1.1 25 -3.9 70 70 SSW 6 9 30.04 1017 10 16.0934 0 0
9:52 pm 21:52 Clear 34 1.1 25 -3.9 70 70 SSW 7 11 30.03 1017 10 16.0934 0 0
10:52 pm 22:52 Clear 34 1.1 26 -3.3 73 73 Calm 30.03 1017 10 16.0934 0 0
11:52 pm 23:52 Clear 32 0 27 -2.8 82 82 Calm 30.03 1017 10 16.0934 0 0

Powered by AerisWeather